{"data":{"norad_id":43108,"intl_designator":"2018-003B","name":"BEIDOU-3 M8 (C28)","alt_names":[],"object_type":"PAYLOAD","status":"ACTIVE","operator":null,"country":"PRC","launch_date":"2018-01-11","launch_site_code":"XICLF","launch_vehicle":null,"mission":null,"orbit_class":"UNKNOWN","rcs_meters":null,"size_class":null,"mass_kg":null,"dimensions":null,"purposes":["nav"],"wikipedia_slug":null,"has_3d_model":false,"image_url":null,"decayed_at":null,"tle_current":{"epoch":"2026-05-23T14:17:32.025120Z","epoch_age_seconds":190359,"freshness":"STALE","line1":"1 43108U 18003B   26143.59550955 -.00000077  00000+0  00000+0 0  9990","line2":"2 43108  54.3440 303.1537 0002125 272.4030  87.5525  1.86230755 56907","mean_motion":1.86230755,"eccentricity":0.0002125,"inclination_deg":54.344,"raan_deg":303.1537,"arg_perigee_deg":272.403,"mean_anomaly_deg":87.5525,"bstar":0,"rev_number":5690,"period_min":773.23425982996,"perigee_km":21522.145968679,"apogee_km":21534.00610922,"semimajor_km":27906.21303895,"source":"CELESTRAK","updated_at":"2026-05-25T13:38:24.217376Z"}}}